Time,TemperatureF,DewpointF,PressureIn,WindDirection,WindDirectionDegrees,WindSpeedMPH,WindSpeedGustMPH,Humidity,HourlyPrecipIn,Conditions,Clouds,dailyrainin,SolarRadiationWatts/m^2,SoftwareType,DateUTC
2013-11-11 00:02:00,47.3,23.0,30.12,North,355,15.0,22.0,38,0.00,,,0.00,0.0,meteohub,2013-11-11 05:02:00,
2013-11-11 00:03:00,47.1,23.4,30.12,North,0,15.0,22.0,39,0.00,,,0.00,0.0,meteohub,2013-11-11 05:03:00,
2013-11-11 00:06:00,47.1,22.8,30.12,NNE,33,8.0,24.0,38,0.00,,,0.00,0.0,meteohub,2013-11-11 05:06:00,
2013-11-11 00:12:00,46.9,23.2,30.12,North,355,14.0,24.0,39,0.00,,,0.00,0.0,meteohub,2013-11-11 05:12:00,
2013-11-11 00:15:00,46.9,23.2,30.12,North,355,12.0,24.0,39,0.00,,,0.00,0.0,meteohub,2013-11-11 05:15:00,
2013-11-11 00:18:00,46.8,23.2,30.12,NNE,13,16.0,24.0,39,0.00,,,0.00,0.0,meteohub,2013-11-11 05:18:00,
2013-11-11 00:24:00,46.6,23.0,30.12,North,355,22.0,23.0,39,0.00,,,0.00,0.0,meteohub,2013-11-11 05:24:00,
2013-11-11 00:30:00,46.6,23.0,30.12,NNE,28,11.0,26.0,39,0.00,,,0.00,0.0,meteohub,2013-11-11 05:30:00,
2013-11-11 00:36:00,46.2,22.6,30.12,North,0,15.0,26.0,39,0.00,,,0.00,0.0,meteohub,2013-11-11 05:36:00,
2013-11-11 00:42:00,46.4,22.8,30.12,NNE,32,12.0,27.0,39,0.00,,,0.00,0.0,meteohub,2013-11-11 05:42:00,
2013-11-11 00:47:00,46.0,23.0,30.12,NNE,30,17.0,27.0,40,0.00,,,0.00,0.0,meteohub,2013-11-11 05:47:00,
2013-11-11 00:52:00,46.0,23.0,30.12,North,355,5.0,32.0,40,0.00,,,0.00,0.0,meteohub,2013-11-11 05:52:00,
2013-11-11 00:57:00,45.9,22.8,30.12,North,355,18.0,32.0,40,0.00,,,0.00,0.0,meteohub,2013-11-11 05:57:00,
2013-11-11 01:02:00,45.9,22.8,30.12,NE,39,21.0,32.0,40,0.00,,,0.00,0.0,meteohub,2013-11-11 06:02:00,
2013-11-11 01:07:00,45.9,22.3,30.12,North,5,17.0,25.0,39,0.00,,,0.00,0.0,meteohub,2013-11-11 06:07:00,
2013-11-11 01:12:00,45.7,22.8,30.12,North,5,10.0,25.0,40,0.00,,,0.00,0.0,meteohub,2013-11-11 06:12:00,
2013-11-11 01:17:00,45.3,22.5,30.12,NNW,348,9.0,25.0,40,0.00,,,0.00,0.0,meteohub,2013-11-11 06:17:00,
2013-11-11 01:22:00,45.3,22.5,30.12,NNW,348,13.0,24.0,40,0.00,,,0.00,0.0,meteohub,2013-11-11 06:22:00,
2013-11-11 01:27:00,45.1,22.8,30.13,North,5,6.0,23.0,41,0.00,,,0.00,0.0,meteohub,2013-11-11 06:27:00,
2013-11-11 01:32:00,45.1,22.8,30.13,North,0,11.0,23.0,41,0.00,,,0.00,0.0,meteohub,2013-11-11 06:32:00,
2013-11-11 01:37:00,45.0,22.6,30.13,North,0,9.0,20.0,41,0.00,,,0.00,0.0,meteohub,2013-11-11 06:37:00,
2013-11-11 01:42:00,45.0,22.6,30.13,NNE,23,8.0,22.0,41,0.00,,,0.00,0.0,meteohub,2013-11-11 06:42:00,
2013-11-11 01:47:00,44.8,22.5,30.13,NNE,15,3.0,22.0,41,0.00,,,0.00,0.0,meteohub,2013-11-11 06:47:00,
2013-11-11 01:52:00,44.8,23.0,30.13,North,10,7.0,21.0,42,0.00,,,0.00,0.0,meteohub,2013-11-11 06:52:00,
2013-11-11 01:57:00,44.4,22.8,30.13,NE,38,11.0,21.0,42,0.00,,,0.00,0.0,meteohub,2013-11-11 06:57:00,
2013-11-11 02:02:00,44.4,22.8,30.13,North,355,15.0,22.0,42,0.00,,,0.00,0.0,meteohub,2013-11-11 07:02:00,
2013-11-11 02:07:00,44.2,22.6,30.13,NNE,17,14.0,22.0,42,0.00,,,0.00,0.0,meteohub,2013-11-11 07:07:00,
2013-11-11 02:12:00,44.2,22.6,30.13,NNE,22,9.0,24.0,42,0.00,,,0.00,0.0,meteohub,2013-11-11 07:12:00,
2013-11-11 02:17:00,44.2,23.2,30.13,North,355,7.0,24.0,43,0.00,,,0.00,0.0,meteohub,2013-11-11 07:17:00,
2013-11-11 02:22:00,44.2,22.6,30.13,NNE,12,15.0,24.0,42,0.00,,,0.00,0.0,meteohub,2013-11-11 07:22:00,
2013-11-11 02:27:00,44.2,23.2,30.13,NNE,17,14.0,23.0,43,0.00,,,0.00,0.0,meteohub,2013-11-11 07:27:00,
2013-11-11 02:32:00,44.2,23.2,30.13,North,11,17.0,29.0,43,0.00,,,0.00,0.0,meteohub,2013-11-11 07:32:00,
2013-11-11 02:37:00,44.2,23.2,30.14,NNE,18,12.0,29.0,43,0.00,,,0.00,0.0,meteohub,2013-11-11 07:37:00,
2013-11-11 02:42:00,44.1,23.0,30.14,North,0,15.0,29.0,43,0.00,,,0.00,0.0,meteohub,2013-11-11 07:42:00,
2013-11-11 02:47:00,43.9,22.8,30.14,North,5,10.0,26.0,43,0.00,,,0.00,0.0,meteohub,2013-11-11 07:47:00,
2013-11-11 02:52:00,43.9,22.8,30.14,North,5,17.0,26.0,43,0.00,,,0.00,0.0,meteohub,2013-11-11 07:52:00,
2013-11-11 02:57:00,43.9,22.8,30.14,North,355,14.0,25.0,43,0.00,,,0.00,0.0,meteohub,2013-11-11 07:57:00,
2013-11-11 03:02:00,43.9,22.8,30.14,NNE,17,11.0,25.0,43,0.00,,,0.00,0.0,meteohub,2013-11-11 08:02:00,
2013-11-11 03:07:00,43.9,22.8,30.14,NNW,347,17.0,27.0,43,0.00,,,0.00,0.0,meteohub,2013-11-11 08:07:00,
2013-11-11 03:12:00,43.9,22.8,30.14,North,5,15.0,27.0,43,0.00,,,0.00,0.0,meteohub,2013-11-11 08:12:00,
2013-11-11 03:17:00,43.7,22.6,30.14,North,0,12.0,26.0,43,0.00,,,0.00,0.0,meteohub,2013-11-11 08:17:00,
2013-11-11 03:22:00,43.5,22.5,30.14,North,11,17.0,24.0,43,0.00,,,0.00,0.0,meteohub,2013-11-11 08:22:00,
2013-11-11 03:27:00,43.5,22.5,30.14,NNW,346,15.0,24.0,43,0.00,,,0.00,0.0,meteohub,2013-11-11 08:27:00,
2013-11-11 03:32:00,43.5,22.5,30.14,North,5,10.0,23.0,43,0.00,,,0.00,0.0,meteohub,2013-11-11 08:32:00,
2013-11-11 03:37:00,43.5,22.5,30.14,NNE,14,11.0,26.0,43,0.00,,,0.00,0.0,meteohub,2013-11-11 08:37:00,
2013-11-11 03:42:00,43.5,22.5,30.14,North,11,13.0,26.0,43,0.00,,,0.00,0.0,meteohub,2013-11-11 08:42:00,
2013-11-11 03:47:00,43.5,23.0,30.14,NNE,18,18.0,26.0,44,0.00,,,0.00,0.0,meteohub,2013-11-11 08:47:00,
2013-11-11 03:52:00,43.7,22.6,30.14,NNW,334,15.0,26.0,43,0.00,,,0.00,0.0,meteohub,2013-11-11 08:52:00,
2013-11-11 03:57:00,43.7,22.6,30.14,NNE,12,19.0,26.0,43,0.00,,,0.00,0.0,meteohub,2013-11-11 08:57:00,
2013-11-11 04:02:00,43.5,22.5,30.14,NNE,16,15.0,26.0,43,0.00,,,0.00,0.0,meteohub,2013-11-11 09:02:00,
2013-11-11 04:07:00,43.5,23.0,30.14,North,5,15.0,25.0,44,0.00,,,0.00,0.0,meteohub,2013-11-11 09:07:00,
2013-11-11 04:12:00,43.3,22.8,30.14,North,355,5.0,25.0,44,0.00,,,0.00,0.0,meteohub,2013-11-11 09:12:00,
2013-11-11 04:17:00,43.5,22.5,30.15,North,5,6.0,25.0,43,0.00,,,0.00,0.0,meteohub,2013-11-11 09:17:00,
2013-11-11 04:22:00,43.7,22.6,30.15,North,349,4.0,21.0,43,0.00,,,0.00,0.0,meteohub,2013-11-11 09:22:00,
2013-11-11 04:27:00,43.5,22.5,30.15,North,0,4.0,21.0,43,0.00,,,0.00,0.0,meteohub,2013-11-11 09:27:00,
2013-11-11 04:32:00,43.5,22.5,30.16,NNE,14,2.0,18.0,43,0.00,,,0.00,0.0,meteohub,2013-11-11 09:32:00,
2013-11-11 04:37:00,43.3,22.3,30.16,NNE,12,11.0,18.0,43,0.00,,,0.00,0.0,meteohub,2013-11-11 09:37:00,
2013-11-11 04:42:00,43.2,22.6,30.16,North,355,13.0,16.0,44,0.00,,,0.00,0.0,meteohub,2013-11-11 09:42:00,
2013-11-11 04:47:00,43.2,22.1,30.16,NNE,15,12.0,17.0,43,0.00,,,0.00,0.0,meteohub,2013-11-11 09:47:00,
2013-11-11 04:52:00,43.2,22.6,30.16,NNE,19,15.0,17.0,44,0.00,,,0.00,0.0,meteohub,2013-11-11 09:52:00,
2013-11-11 04:57:00,43.2,22.6,30.17,North,9,17.0,18.0,44,0.00,,,0.00,0.0,meteohub,2013-11-11 09:57:00,
2013-11-11 05:02:00,42.8,22.5,30.17,NNE,16,12.0,18.0,44,0.00,,,0.00,0.0,meteohub,2013-11-11 10:02:00,
2013-11-11 05:07:00,42.8,23.0,30.17,NNE,17,9.0,18.0,45,0.00,,,0.00,0.0,meteohub,2013-11-11 10:07:00,
2013-11-11 05:12:00,43.0,22.1,30.17,North,355,3.0,18.0,43,0.00,,,0.00,0.0,meteohub,2013-11-11 10:12:00,
2013-11-11 05:17:00,43.0,22.6,30.17,North,5,5.0,17.0,44,0.00,,,0.00,0.0,meteohub,2013-11-11 10:17:00,
2013-11-11 05:22:00,43.0,22.1,30.17,North,11,8.0,17.0,43,0.00,,,0.00,0.0,meteohub,2013-11-11 10:22:00,
2013-11-11 05:27:00,42.6,22.3,30.17,North,11,6.0,17.0,44,0.00,,,0.00,0.0,meteohub,2013-11-11 10:27:00,
2013-11-11 05:32:00,42.6,21.7,30.17,North,355,4.0,14.0,43,0.00,,,0.00,0.0,meteohub,2013-11-11 10:32:00,
2013-11-11 05:37:00,42.6,21.7,30.18,North,5,3.0,13.0,43,0.00,,,0.00,0.0,meteohub,2013-11-11 10:37:00,
2013-11-11 05:42:00,42.4,22.1,30.18,North,5,3.0,13.0,44,0.00,,,0.00,0.0,meteohub,2013-11-11 10:42:00,
2013-11-11 05:47:00,42.4,22.1,30.18,North,5,4.0,11.0,44,0.00,,,0.00,0.0,meteohub,2013-11-11 10:47:00,
2013-11-11 05:52:00,42.4,22.6,30.18,North,5,7.0,7.0,45,0.00,,,0.00,0.0,meteohub,2013-11-11 10:52:00,
2013-11-11 05:57:00,42.3,23.0,30.18,NNE,17,4.0,13.0,46,0.00,,,0.00,0.0,meteohub,2013-11-11 10:57:00,
2013-11-11 06:02:00,42.1,22.3,30.19,North,10,3.0,13.0,45,0.00,,,0.00,0.0,meteohub,2013-11-11 11:02:00,
2013-11-11 06:07:00,41.9,22.1,30.19,North,5,4.0,13.0,45,0.00,,,0.00,0.0,meteohub,2013-11-11 11:07:00,
2013-11-11 06:12:00,41.7,23.0,30.19,NNE,22,5.0,11.0,47,0.00,,,0.00,0.0,meteohub,2013-11-11 11:12:00,
2013-11-11 06:17:00,41.7,23.0,30.19,NNE,14,4.0,13.0,47,0.00,,,0.00,0.0,meteohub,2013-11-11 11:17:00,
2013-11-11 06:22:00,41.4,23.2,30.20,North,10,3.0,13.0,48,0.00,,,0.00,0.0,meteohub,2013-11-11 11:22:00,
2013-11-11 06:27:00,40.8,23.2,30.19,North,5,4.0,13.0,49,0.00,,,0.00,0.0,meteohub,2013-11-11 11:27:00,
2013-11-11 06:32:00,40.8,23.2,30.20,North,9,1.0,14.0,49,0.00,,,0.00,0.0,meteohub,2013-11-11 11:32:00,
2013-11-11 06:37:00,40.6,23.5,30.20,North,9,0.0,14.0,50,0.00,,,0.00,0.0,meteohub,2013-11-11 11:37:00,
2013-11-11 06:42:00,40.6,23.5,30.21,NW,317,4.0,12.0,50,0.00,,,0.00,0.0,meteohub,2013-11-11 11:42:00,
2013-11-11 06:47:00,40.3,23.2,30.21,North,5,0.0,7.0,50,0.00,,,0.00,0.0,meteohub,2013-11-11 11:47:00,
2013-11-11 06:52:00,40.1,23.9,30.20,North,5,2.0,7.0,52,0.00,,,0.00,0.0,meteohub,2013-11-11 11:52:00,
2013-11-11 06:57:00,39.7,24.4,30.21,North,5,2.0,4.0,54,0.00,,,0.00,0.0,meteohub,2013-11-11 11:57:00,
2013-11-11 07:02:00,39.2,24.4,30.22,North,5,0.0,4.0,55,0.00,,,0.00,7.0,meteohub,2013-11-11 12:02:00,
2013-11-11 07:07:00,38.7,24.3,30.22,North,0,2.0,4.0,56,0.00,,,0.00,11.0,meteohub,2013-11-11 12:07:00,
2013-11-11 07:12:00,38.5,24.6,30.22,North,0,0.0,3.0,57,0.00,,,0.00,16.0,meteohub,2013-11-11 12:12:00,
2013-11-11 07:17:00,38.7,23.9,30.22,NNE,22,2.0,3.0,55,0.00,,,0.00,21.0,meteohub,2013-11-11 12:17:00,
2013-11-11 07:22:00,39.4,23.2,30.22,North,0,2.0,5.0,52,0.00,,,0.00,30.0,meteohub,2013-11-11 12:22:00,
2013-11-11 07:27:00,39.9,23.2,30.22,North,5,2.0,14.0,51,0.00,,,0.00,39.0,meteohub,2013-11-11 12:27:00,
2013-11-11 07:32:00,40.3,23.2,30.23,North,5,1.0,14.0,50,0.00,,,0.00,51.0,meteohub,2013-11-11 12:32:00,
2013-11-11 07:37:00,40.6,23.0,30.23,NNE,25,2.0,14.0,49,0.00,,,0.00,65.0,meteohub,2013-11-11 12:37:00,
2013-11-11 07:42:00,41.0,23.4,30.23,North,10,0.0,10.0,49,0.00,,,0.00,79.0,meteohub,2013-11-11 12:42:00,
2013-11-11 07:47:00,41.4,23.7,30.23,NNE,33,0.0,8.0,49,0.00,,,0.00,97.0,meteohub,2013-11-11 12:47:00,
2013-11-11 07:52:00,41.7,23.5,30.23,NE,55,0.0,8.0,48,0.00,,,0.00,114.0,meteohub,2013-11-11 12:52:00,
2013-11-11 07:57:00,41.7,23.5,30.23,North,5,3.0,7.0,48,0.00,,,0.00,134.0,meteohub,2013-11-11 12:57:00,
2013-11-11 08:02:00,41.5,22.8,30.23,NNE,17,2.0,6.0,47,0.00,,,0.00,151.0,meteohub,2013-11-11 13:02:00,
2013-11-11 08:07:00,41.7,22.5,30.24,ENE,66,1.0,17.0,46,0.00,,,0.00,171.0,meteohub,2013-11-11 13:07:00,
2013-11-11 08:12:00,41.7,22.5,30.24,NE,39,1.0,17.0,46,0.00,,,0.00,188.0,meteohub,2013-11-11 13:12:00,
2013-11-11 08:17:00,41.9,22.1,30.24,NE,43,6.0,16.0,45,0.00,,,0.00,202.0,meteohub,2013-11-11 13:17:00,
2013-11-11 08:22:00,42.3,22.5,30.24,North,5,1.0,16.0,45,0.00,,,0.00,218.0,meteohub,2013-11-11 13:22:00,
2013-11-11 08:27:00,42.4,22.1,30.24,ESE,122,1.0,12.0,44,0.00,,,0.00,236.0,meteohub,2013-11-11 13:27:00,
2013-11-11 08:32:00,42.6,22.3,30.25,NNE,26,0.0,18.0,44,0.00,,,0.00,250.0,meteohub,2013-11-11 13:32:00,
2013-11-11 08:37:00,42.8,22.5,30.25,East,86,0.0,18.0,44,0.00,,,0.00,264.0,meteohub,2013-11-11 13:37:00,
2013-11-11 08:42:00,43.2,22.6,30.25,West,277,1.0,18.0,44,0.00,,,0.00,281.0,meteohub,2013-11-11 13:42:00,
2013-11-11 08:47:00,43.3,22.8,30.25,East,101,0.0,16.0,44,0.00,,,0.00,297.0,meteohub,2013-11-11 13:47:00,
2013-11-11 08:52:00,43.7,23.2,30.25,SE,125,1.0,7.0,44,0.00,,,0.00,309.0,meteohub,2013-11-11 13:52:00,
2013-11-11 08:57:00,44.1,23.0,30.25,NNE,24,3.0,5.0,43,0.00,,,0.00,323.0,meteohub,2013-11-11 13:57:00,
2013-11-11 09:02:00,44.2,22.6,30.25,East,91,0.0,6.0,42,0.00,,,0.00,339.0,meteohub,2013-11-11 14:02:00,
2013-11-11 09:07:00,44.2,22.6,30.26,NE,38,2.0,7.0,42,0.00,,,0.00,253.0,meteohub,2013-11-11 14:07:00,
2013-11-11 09:12:00,44.2,23.2,30.26,NNE,18,10.0,10.0,43,0.00,,,0.00,181.0,meteohub,2013-11-11 14:12:00,
2013-11-11 09:17:00,44.2,22.6,30.26,ENE,75,0.0,10.0,42,0.00,,,0.00,383.0,meteohub,2013-11-11 14:17:00,
2013-11-11 09:22:00,44.1,23.0,30.25,East,82,0.0,10.0,43,0.00,,,0.00,397.0,meteohub,2013-11-11 14:22:00,
2013-11-11 09:27:00,44.2,22.6,30.26,NE,43,1.0,10.0,42,0.00,,,0.00,408.0,meteohub,2013-11-11 14:27:00,
2013-11-11 09:32:00,44.4,23.4,30.25,ENE,73,1.0,7.0,43,0.00,,,0.00,422.0,meteohub,2013-11-11 14:32:00,
2013-11-11 09:37:00,44.4,22.8,30.26,East,100,0.0,7.0,42,0.00,,,0.00,436.0,meteohub,2013-11-11 14:37:00,
2013-11-11 09:42:00,44.6,23.5,30.26,East,84,0.0,8.0,43,0.00,,,0.00,448.0,meteohub,2013-11-11 14:42:00,
2013-11-11 09:47:00,45.1,23.9,30.26,East,85,0.0,8.0,43,0.00,,,0.00,459.0,meteohub,2013-11-11 14:47:00,
2013-11-11 09:52:00,45.1,22.8,30.26,ENE,57,0.0,10.0,41,0.00,,,0.00,475.0,meteohub,2013-11-11 14:52:00,
2013-11-11 09:57:00,44.8,23.0,30.26,SSE,157,6.0,10.0,42,0.00,,,0.00,485.0,meteohub,2013-11-11 14:57:00,
2013-11-11 10:02:00,45.0,22.6,30.26,East,89,2.0,8.0,41,0.00,,,0.00,496.0,meteohub,2013-11-11 15:02:00,
2013-11-11 10:07:00,45.1,23.4,30.26,SE,142,0.0,8.0,42,0.00,,,0.00,508.0,meteohub,2013-11-11 15:07:00,
2013-11-11 10:12:00,45.3,23.5,30.26,East,88,0.0,8.0,42,0.00,,,0.00,520.0,meteohub,2013-11-11 15:12:00,
2013-11-11 10:17:00,45.7,24.4,30.26,East,96,0.0,6.0,43,0.00,,,0.00,531.0,meteohub,2013-11-11 15:17:00,
2013-11-11 10:22:00,45.7,24.4,30.26,East,92,0.0,9.0,43,0.00,,,0.00,548.0,meteohub,2013-11-11 15:22:00,
2013-11-11 10:27:00,45.9,24.6,30.26,ENE,78,0.0,9.0,43,0.00,,,0.00,545.0,meteohub,2013-11-11 15:27:00,
2013-11-11 10:32:00,46.0,24.8,30.26,SE,136,4.0,9.0,43,0.00,,,0.00,563.0,meteohub,2013-11-11 15:32:00,
2013-11-11 10:37:00,46.6,24.8,30.26,East,83,3.0,8.0,42,0.00,,,0.00,571.0,meteohub,2013-11-11 15:37:00,
2013-11-11 10:42:00,46.9,23.9,30.26,ESE,103,0.0,8.0,40,0.00,,,0.00,578.0,meteohub,2013-11-11 15:42:00,
2013-11-11 10:47:00,46.6,23.5,30.26,ENE,70,0.0,8.0,40,0.00,,,0.00,591.0,meteohub,2013-11-11 15:47:00,
2013-11-11 10:52:00,46.4,22.1,30.26,East,89,1.0,7.0,38,0.00,,,0.00,596.0,meteohub,2013-11-11 15:52:00,
2013-11-11 10:57:00,46.4,23.4,30.25,ENE,77,0.0,7.0,40,0.00,,,0.00,603.0,meteohub,2013-11-11 15:57:00,
2013-11-11 11:02:00,46.9,22.6,30.25,NE,47,2.0,7.0,38,0.00,,,0.00,610.0,meteohub,2013-11-11 16:02:00,
2013-11-11 11:07:00,47.3,22.3,30.25,ENE,59,0.0,7.0,37,0.00,,,0.00,619.0,meteohub,2013-11-11 16:07:00,
2013-11-11 11:12:00,47.3,23.0,30.25,NE,51,1.0,7.0,38,0.00,,,0.00,624.0,meteohub,2013-11-11 16:12:00,
2013-11-11 11:17:00,47.7,23.4,30.25,ENE,77,1.0,6.0,38,0.00,,,0.00,633.0,meteohub,2013-11-11 16:17:00,
2013-11-11 11:22:00,47.7,22.6,30.24,East,96,1.0,6.0,37,0.00,,,0.00,638.0,meteohub,2013-11-11 16:22:00,
2013-11-11 11:27:00,47.8,24.1,30.24,East,101,0.0,5.0,39,0.00,,,0.00,643.0,meteohub,2013-11-11 16:27:00,
2013-11-11 11:32:00,48.4,23.9,30.23,NE,42,3.0,12.0,38,0.00,,,0.00,649.0,meteohub,2013-11-11 16:32:00,
2013-11-11 11:37:00,48.6,24.1,30.23,North,0,1.0,12.0,38,0.00,,,0.00,652.0,meteohub,2013-11-11 16:37:00,
2013-11-11 11:42:00,48.7,22.3,30.23,East,82,0.0,12.0,35,0.00,,,0.00,656.0,meteohub,2013-11-11 16:42:00,
2013-11-11 11:47:00,48.7,23.0,30.22,East,81,0.0,10.0,36,0.00,,,0.00,661.0,meteohub,2013-11-11 16:47:00,
2013-11-11 11:52:00,48.9,23.7,30.22,East,96,0.0,10.0,37,0.00,,,0.00,663.0,meteohub,2013-11-11 16:52:00,
2013-11-11 11:57:00,50.0,24.1,30.22,ESE,113,0.0,5.0,36,0.00,,,0.00,670.0,meteohub,2013-11-11 16:57:00,
2013-11-11 12:02:00,50.5,23.2,30.22,ENE,75,0.0,7.0,34,0.00,,,0.00,668.0,meteohub,2013-11-11 17:02:00,
2013-11-11 12:07:00,50.4,23.7,30.21,East,94,0.0,7.0,35,0.00,,,0.00,671.0,meteohub,2013-11-11 17:07:00,
2013-11-11 12:12:00,51.1,23.7,30.21,South,180,1.0,7.0,34,0.00,,,0.00,673.0,meteohub,2013-11-11 17:12:00,
2013-11-11 12:17:00,51.3,23.9,30.21,NE,50,3.0,8.0,34,0.00,,,0.00,675.0,meteohub,2013-11-11 17:17:00,
2013-11-11 12:22:00,51.3,24.6,30.21,ESE,115,1.0,8.0,35,0.00,,,0.00,675.0,meteohub,2013-11-11 17:22:00,
2013-11-11 12:27:00,51.3,23.2,30.20,NE,53,0.0,10.0,33,0.00,,,0.00,675.0,meteohub,2013-11-11 17:27:00,
2013-11-11 12:32:00,51.3,23.9,30.20,East,80,6.0,10.0,34,0.00,,,0.00,675.0,meteohub,2013-11-11 17:32:00,
2013-11-11 12:37:00,51.6,24.1,30.19,East,96,0.0,10.0,34,0.00,,,0.00,671.0,meteohub,2013-11-11 17:37:00,
2013-11-11 12:42:00,52.2,23.9,30.19,East,88,0.0,8.0,33,0.00,,,0.00,671.0,meteohub,2013-11-11 17:42:00,
2013-11-11 12:47:00,52.3,24.1,30.19,ENE,65,0.0,9.0,33,0.00,,,0.00,524.0,meteohub,2013-11-11 17:47:00,
2013-11-11 12:52:00,51.8,24.3,30.19,East,82,0.0,9.0,34,0.00,,,0.00,520.0,meteohub,2013-11-11 17:52:00,
2013-11-11 12:57:00,52.5,24.3,30.18,East,84,0.0,9.0,33,0.00,,,0.00,457.0,meteohub,2013-11-11 17:57:00,
2013-11-11 13:02:00,52.7,24.4,30.18,SSW,196,0.0,5.0,33,0.00,,,0.00,283.0,meteohub,2013-11-11 18:02:00,
2013-11-11 13:07:00,53.1,24.8,30.18,SE,145,0.0,6.0,33,0.00,,,0.00,431.0,meteohub,2013-11-11 18:07:00,
2013-11-11 13:12:00,53.6,24.4,30.18,SE,144,0.0,6.0,32,0.00,,,0.00,466.0,meteohub,2013-11-11 18:12:00,
2013-11-11 13:17:00,53.4,24.3,30.17,ENE,59,2.0,6.0,32,0.00,,,0.00,410.0,meteohub,2013-11-11 18:17:00,
2013-11-11 13:22:00,53.2,25.5,30.17,SSE,166,4.0,7.0,34,0.00,,,0.00,408.0,meteohub,2013-11-11 18:22:00,
2013-11-11 13:27:00,52.9,25.3,30.17,East,88,0.0,7.0,34,0.00,,,0.00,176.0,meteohub,2013-11-11 18:27:00,
2013-11-11 13:32:00,53.1,25.3,30.17,ESE,114,1.0,7.0,34,0.00,,,0.00,547.0,meteohub,2013-11-11 18:32:00,
2013-11-11 13:37:00,53.4,26.4,30.17,South,175,0.0,8.0,35,0.00,,,0.00,299.0,meteohub,2013-11-11 18:37:00,
2013-11-11 13:42:00,53.4,25.7,30.17,SSE,159,2.0,8.0,34,0.00,,,0.00,369.0,meteohub,2013-11-11 18:42:00,
2013-11-11 13:47:00,53.4,26.4,30.16,SSE,156,2.0,6.0,35,0.00,,,0.00,543.0,meteohub,2013-11-11 18:47:00,
2013-11-11 13:52:00,53.1,25.3,30.16,SE,127,0.0,7.0,34,0.00,,,0.00,343.0,meteohub,2013-11-11 18:52:00,
2013-11-11 13:57:00,52.9,25.9,30.15,East,87,1.0,7.0,35,0.00,,,0.00,237.0,meteohub,2013-11-11 18:57:00,
2013-11-11 14:02:00,52.5,26.2,30.15,SE,128,2.0,7.0,36,0.00,,,0.00,174.0,meteohub,2013-11-11 19:02:00,
2013-11-11 14:07:00,52.9,26.6,30.15,South,171,4.0,7.0,36,0.00,,,0.00,102.0,meteohub,2013-11-11 19:07:00,
2013-11-11 14:12:00,53.2,26.2,30.16,ESE,105,1.0,7.0,35,0.00,,,0.00,158.0,meteohub,2013-11-11 19:12:00,
2013-11-11 14:17:00,53.4,25.7,30.15,ESE,105,2.0,5.0,34,0.00,,,0.00,70.0,meteohub,2013-11-11 19:17:00,
2013-11-11 14:22:00,53.6,25.9,30.15,SSE,151,4.0,5.0,34,0.00,,,0.00,113.0,meteohub,2013-11-11 19:22:00,
2013-11-11 14:27:00,54.0,27.0,30.15,SE,130,0.0,6.0,35,0.00,,,0.00,39.0,meteohub,2013-11-11 19:27:00,
2013-11-11 14:32:00,54.1,26.4,30.15,East,88,0.0,6.0,34,0.00,,,0.00,76.0,meteohub,2013-11-11 19:32:00,
2013-11-11 14:37:00,54.3,26.6,30.15,South,169,0.0,6.0,34,0.00,,,0.00,62.0,meteohub,2013-11-11 19:37:00,
2013-11-11 14:42:00,54.5,26.8,30.15,ESE,109,0.0,4.0,34,0.00,,,0.00,47.0,meteohub,2013-11-11 19:42:00,
2013-11-11 14:47:00,54.7,26.1,30.15,SSE,163,1.0,5.0,33,0.00,,,0.00,44.0,meteohub,2013-11-11 19:47:00,
2013-11-11 14:52:00,54.7,26.8,30.15,SE,127,2.0,5.0,34,0.00,,,0.00,35.0,meteohub,2013-11-11 19:52:00,
2013-11-11 14:57:00,54.7,26.8,30.14,SE,129,2.0,5.0,34,0.00,,,0.00,32.0,meteohub,2013-11-11 19:57:00,
2013-11-11 15:02:00,54.5,26.1,30.14,South,180,1.0,7.0,33,0.00,,,0.00,51.0,meteohub,2013-11-11 20:02:00,
2013-11-11 15:07:00,54.1,26.4,30.14,ESE,104,0.0,8.0,34,0.00,,,0.00,151.0,meteohub,2013-11-11 20:07:00,
2013-11-11 15:14:00,53.8,26.8,30.14,NE,53,0.0,8.0,35,0.00,,,0.00,42.0,meteohub,2013-11-11 20:14:00,
2013-11-11 15:20:00,53.8,26.8,30.14,SSE,155,2.0,4.0,35,0.00,,,0.00,42.0,meteohub,2013-11-11 20:20:00,
2013-11-11 15:26:00,53.8,26.8,30.14,South,170,0.0,5.0,35,0.00,,,0.00,30.0,meteohub,2013-11-11 20:26:00,
2013-11-11 15:32:00,53.8,26.8,30.14,ESE,115,0.0,5.0,35,0.00,,,0.00,33.0,meteohub,2013-11-11 20:32:00,
2013-11-11 15:37:00,53.8,26.8,30.14,South,173,0.0,5.0,35,0.00,,,0.00,30.0,meteohub,2013-11-11 20:37:00,
2013-11-11 15:42:00,53.8,27.5,30.14,ESE,103,0.0,5.0,36,0.00,,,0.00,28.0,meteohub,2013-11-11 20:42:00,
2013-11-11 15:47:00,53.6,27.3,30.14,ESE,103,0.0,4.0,36,0.00,,,0.00,32.0,meteohub,2013-11-11 20:47:00,
2013-11-11 15:52:00,53.4,27.1,30.14,ESE,105,0.0,4.0,36,0.00,,,0.00,58.0,meteohub,2013-11-11 20:52:00,
2013-11-11 15:57:00,53.2,27.0,30.14,SSE,159,0.0,2.0,36,0.00,,,0.00,42.0,meteohub,2013-11-11 20:57:00,
2013-11-11 16:02:00,53.2,27.7,30.14,ESE,117,1.0,2.0,37,0.00,,,0.00,39.0,meteohub,2013-11-11 21:02:00,
2013-11-11 16:07:00,53.2,27.7,30.14,ESE,123,0.0,4.0,37,0.00,,,0.00,42.0,meteohub,2013-11-11 21:07:00,
2013-11-11 16:12:00,53.2,27.7,30.14,ESE,123,0.0,4.0,37,0.00,,,0.00,23.0,meteohub,2013-11-11 21:12:00,
2013-11-11 16:17:00,53.1,27.5,30.14,SSE,152,0.0,4.0,37,0.00,,,0.00,21.0,meteohub,2013-11-11 21:17:00,
2013-11-11 16:22:00,52.9,28.0,30.14,SSE,152,0.0,4.0,38,0.00,,,0.00,19.0,meteohub,2013-11-11 21:22:00,
2013-11-11 16:27:00,52.5,28.2,30.14,SSE,152,0.0,2.0,39,0.00,,,0.00,18.0,meteohub,2013-11-11 21:27:00,
2013-11-11 16:32:00,52.0,28.9,30.14,SSE,152,0.0,1.0,41,0.00,,,0.00,18.0,meteohub,2013-11-11 21:32:00,
2013-11-11 16:37:00,51.4,28.6,30.14,SSE,152,0.0,1.0,41,0.00,,,0.00,16.0,meteohub,2013-11-11 21:37:00,
2013-11-11 16:42:00,50.7,29.1,30.14,SSE,152,0.0,1.0,43,0.00,,,0.00,16.0,meteohub,2013-11-11 21:42:00,
2013-11-11 16:48:00,50.2,28.6,30.14,SSE,152,0.0,1.0,43,0.00,,,0.00,14.0,meteohub,2013-11-11 21:48:00,
2013-11-11 16:54:00,49.6,29.1,30.14,SSE,152,0.0,0.0,45,0.00,,,0.00,12.0,meteohub,2013-11-11 21:54:00,
2013-11-11 17:00:00,49.3,28.8,30.14,SSE,152,0.0,0.0,45,0.00,,,0.00,11.0,meteohub,2013-11-11 22:00:00,
2013-11-11 17:06:00,48.7,28.9,30.14,SSE,152,0.0,0.0,46,0.00,,,0.00,9.0,meteohub,2013-11-11 22:06:00,
2013-11-11 17:12:00,48.4,29.1,30.14,SSE,152,0.0,0.0,47,0.00,,,0.00,7.0,meteohub,2013-11-11 22:12:00,
2013-11-11 17:17:00,48.0,28.8,30.14,SSE,152,0.0,0.0,47,0.00,,,0.00,7.0,meteohub,2013-11-11 22:17:00,
2013-11-11 17:22:00,47.8,29.1,30.13,SSE,152,0.0,0.0,48,0.00,,,0.00,5.0,meteohub,2013-11-11 22:22:00,
2013-11-11 17:27:00,47.5,28.8,30.13,SSE,152,0.0,1.0,48,0.00,,,0.00,0.0,meteohub,2013-11-11 22:27:00,
2013-11-11 17:32:00,47.1,28.9,30.13,SSE,152,0.0,1.0,49,0.00,,,0.00,0.0,meteohub,2013-11-11 22:32:00,
2013-11-11 17:37:00,46.9,29.3,30.13,SSE,152,0.0,1.0,50,0.00,,,0.00,0.0,meteohub,2013-11-11 22:37:00,
2013-11-11 17:42:00,46.6,28.4,30.13,SSE,152,0.0,1.0,49,0.00,,,0.00,0.0,meteohub,2013-11-11 22:42:00,
2013-11-11 17:47:00,46.4,28.8,30.13,SSE,152,0.0,1.0,50,0.00,,,0.00,0.0,meteohub,2013-11-11 22:47:00,
2013-11-11 17:52:00,46.2,28.6,30.13,SSE,152,0.0,1.0,50,0.00,,,0.00,0.0,meteohub,2013-11-11 22:52:00,
2013-11-11 17:57:00,46.0,28.4,30.13,SSE,152,0.0,1.0,50,0.00,,,0.00,0.0,meteohub,2013-11-11 22:57:00,
2013-11-11 18:02:00,45.9,28.8,30.13,SSE,159,1.0,1.0,51,0.00,,,0.00,0.0,meteohub,2013-11-11 23:02:00,
2013-11-11 18:07:00,45.9,28.2,30.13,SSE,159,0.0,1.0,50,0.00,,,0.00,0.0,meteohub,2013-11-11 23:07:00,
2013-11-11 18:12:00,46.0,27.9,30.13,North,11,1.0,1.0,49,0.00,,,0.00,0.0,meteohub,2013-11-11 23:12:00,
2013-11-11 18:17:00,46.2,28.6,30.13,North,10,0.0,2.0,50,0.00,,,0.00,0.0,meteohub,2013-11-11 23:17:00,
2013-11-11 18:22:00,46.2,28.0,30.14,North,10,0.0,2.0,49,0.00,,,0.00,0.0,meteohub,2013-11-11 23:22:00,
2013-11-11 18:27:00,46.2,28.0,30.14,North,10,0.0,2.0,49,0.00,,,0.00,0.0,meteohub,2013-11-11 23:27:00,
2013-11-11 18:32:00,46.2,28.0,30.14,North,10,1.0,2.0,49,0.00,,,0.00,0.0,meteohub,2013-11-11 23:32:00,
2013-11-11 18:37:00,46.4,28.2,30.14,North,10,0.0,1.0,49,0.00,,,0.00,0.0,meteohub,2013-11-11 23:37:00,
2013-11-11 18:42:00,46.6,28.9,30.14,WSW,244,0.0,2.0,50,0.00,,,0.00,0.0,meteohub,2013-11-11 23:42:00,
2013-11-11 18:47:00,46.6,28.4,30.14,WSW,244,1.0,2.0,49,0.00,,,0.00,0.0,meteohub,2013-11-11 23:47:00,
2013-11-11 18:52:00,46.6,28.4,30.14,North,355,0.0,2.0,49,0.00,,,0.00,0.0,meteohub,2013-11-11 23:52:00,
2013-11-11 18:57:00,46.6,28.9,30.14,NNW,338,0.0,2.0,50,0.00,,,0.00,0.0,meteohub,2013-11-11 23:57:00,
2013-11-11 19:02:00,46.6,28.4,30.14,NNW,343,0.0,2.0,49,0.00,,,0.00,0.0,meteohub,2013-11-12 00:02:00,
2013-11-11 19:07:00,46.6,28.9,30.14,NNE,17,0.0,2.0,50,0.00,,,0.00,0.0,meteohub,2013-11-12 00:07:00,
2013-11-11 19:12:00,46.6,28.9,30.14,NNE,17,0.0,3.0,50,0.00,,,0.00,0.0,meteohub,2013-11-12 00:12:00,
2013-11-11 19:17:00,46.6,28.4,30.14,NNW,328,2.0,3.0,49,0.00,,,0.00,0.0,meteohub,2013-11-12 00:17:00,
2013-11-11 19:22:00,46.4,28.8,30.14,NNW,328,0.0,3.0,50,0.00,,,0.00,0.0,meteohub,2013-11-12 00:22:00,
2013-11-11 19:27:00,46.4,28.8,30.14,NNW,328,0.0,2.0,50,0.00,,,0.00,0.0,meteohub,2013-11-12 00:27:00,
2013-11-11 19:32:00,46.6,28.9,30.14,NNW,329,1.0,2.0,50,0.00,,,0.00,0.0,meteohub,2013-11-12 00:32:00,
2013-11-11 19:37:00,46.6,28.9,30.13,SW,216,0.0,1.0,50,0.00,,,0.00,0.0,meteohub,2013-11-12 00:37:00,
2013-11-11 19:42:00,46.6,28.9,30.13,ENE,74,0.0,2.0,50,0.00,,,0.00,0.0,meteohub,2013-11-12 00:42:00,
2013-11-11 19:47:00,46.6,29.5,30.13,North,5,1.0,2.0,51,0.00,,,0.00,0.0,meteohub,2013-11-12 00:47:00,
2013-11-11 19:52:00,46.6,29.5,30.13,WSW,253,0.0,5.0,51,0.00,,,0.00,0.0,meteohub,2013-11-12 00:52:00,
2013-11-11 19:57:00,46.6,29.5,30.13,NNW,346,0.0,5.0,51,0.00,,,0.00,0.0,meteohub,2013-11-12 00:57:00,
2013-11-11 20:02:00,46.4,28.8,30.13,NNW,346,0.0,5.0,50,0.00,,,0.00,0.0,meteohub,2013-11-12 01:02:00,
2013-11-11 20:07:00,46.4,29.3,30.13,NNW,333,0.0,3.0,51,0.00,,,0.00,0.0,meteohub,2013-11-12 01:07:00,
2013-11-11 20:12:00,46.4,29.7,30.13,NNW,333,0.0,2.0,52,0.00,,,0.00,0.0,meteohub,2013-11-12 01:12:00,
2013-11-11 20:17:00,46.2,29.5,30.13,SE,132,0.0,1.0,52,0.00,,,0.00,0.0,meteohub,2013-11-12 01:17:00,
2013-11-11 20:22:00,46.2,29.5,30.13,WSW,252,0.0,4.0,52,0.00,,,0.00,0.0,meteohub,2013-11-12 01:22:00,
2013-11-11 20:27:00,46.0,29.5,30.13,WSW,252,0.0,4.0,52,0.00,,,0.00,0.0,meteohub,2013-11-12 01:27:00,
2013-11-11 20:32:00,46.0,29.8,30.13,WNW,296,0.0,4.0,53,0.00,,,0.00,0.0,meteohub,2013-11-12 01:32:00,
2013-11-11 20:37:00,45.9,30.2,30.13,WNW,296,0.0,1.0,54,0.00,,,0.00,0.0,meteohub,2013-11-12 01:37:00,
2013-11-11 20:42:00,45.7,30.0,30.13,WNW,296,0.0,2.0,54,0.00,,,0.00,0.0,meteohub,2013-11-12 01:42:00,
2013-11-11 20:47:00,45.5,29.8,30.13,NNE,32,0.0,2.0,54,0.00,,,0.00,0.0,meteohub,2013-11-12 01:47:00,
2013-11-11 20:52:00,45.5,30.2,30.13,North,350,2.0,2.0,55,0.00,,,0.00,0.0,meteohub,2013-11-12 01:52:00,
2013-11-11 20:57:00,45.5,29.8,30.13,North,5,0.0,2.0,54,0.00,,,0.00,0.0,meteohub,2013-11-12 01:57:00,
2013-11-11 21:02:00,45.7,30.4,30.13,NW,315,0.0,3.0,55,0.00,,,0.00,0.0,meteohub,2013-11-12 02:02:00,
2013-11-11 21:07:00,45.9,30.2,30.13,NNW,331,1.0,3.0,54,0.00,,,0.00,0.0,meteohub,2013-11-12 02:07:00,
2013-11-11 21:13:00,45.9,30.2,30.13,NNW,331,0.0,3.0,54,0.00,,,0.00,0.0,meteohub,2013-11-12 02:13:00,
2013-11-11 21:19:00,45.5,29.8,30.13,NNW,331,0.0,2.0,54,0.00,,,0.00,0.0,meteohub,2013-11-12 02:19:00,
2013-11-11 21:25:00,45.7,30.4,30.13,NNE,15,0.0,3.0,55,0.00,,,0.00,0.0,meteohub,2013-11-12 02:25:00,
2013-11-11 21:31:00,45.9,30.2,30.13,SW,232,1.0,3.0,54,0.00,,,0.00,0.0,meteohub,2013-11-12 02:31:00,
2013-11-11 21:37:00,45.7,30.4,30.13,North,5,0.0,4.0,55,0.00,,,0.00,0.0,meteohub,2013-11-12 02:37:00,
2013-11-11 21:42:00,45.7,30.4,30.13,NE,45,0.0,4.0,55,0.00,,,0.00,0.0,meteohub,2013-11-12 02:42:00,
2013-11-11 21:47:00,45.7,30.4,30.13,NE,44,0.0,3.0,55,0.00,,,0.00,0.0,meteohub,2013-11-12 02:47:00,
2013-11-11 21:52:00,45.5,30.7,30.12,NE,44,0.0,1.0,56,0.00,,,0.00,0.0,meteohub,2013-11-12 02:52:00,
2013-11-11 21:57:00,45.3,30.0,30.12,NNE,30,0.0,3.0,55,0.00,,,0.00,0.0,meteohub,2013-11-12 02:57:00,
2013-11-11 22:02:00,45.5,30.2,30.13,NNE,30,0.0,3.0,55,0.00,,,0.00,0.0,meteohub,2013-11-12 03:02:00,
2013-11-11 22:07:00,45.3,30.0,30.13,NNE,30,0.0,3.0,55,0.00,,,0.00,0.0,meteohub,2013-11-12 03:07:00,
2013-11-11 22:12:00,45.7,30.0,30.12,NE,34,0.0,3.0,54,0.00,,,0.00,0.0,meteohub,2013-11-12 03:12:00,
2013-11-11 22:17:00,45.7,30.4,30.12,North,0,1.0,3.0,55,0.00,,,0.00,0.0,meteohub,2013-11-12 03:17:00,
2013-11-11 22:22:00,46.0,29.8,30.13,NNW,344,0.0,3.0,53,0.00,,,0.00,0.0,meteohub,2013-11-12 03:22:00,
2013-11-11 22:27:00,46.2,30.6,30.12,NNE,31,0.0,4.0,54,0.00,,,0.00,0.0,meteohub,2013-11-12 03:27:00,
2013-11-11 22:32:00,46.0,29.5,30.12,NNE,31,0.0,4.0,52,0.00,,,0.00,0.0,meteohub,2013-11-12 03:32:00,
2013-11-11 22:37:00,46.0,30.4,30.12,NNE,31,1.0,4.0,54,0.00,,,0.00,0.0,meteohub,2013-11-12 03:37:00,
2013-11-11 22:42:00,46.0,29.8,30.12,North,5,0.0,2.0,53,0.00,,,0.00,0.0,meteohub,2013-11-12 03:42:00,
2013-11-11 22:47:00,46.2,29.5,30.12,North,355,0.0,2.0,52,0.00,,,0.00,0.0,meteohub,2013-11-12 03:47:00,
2013-11-11 22:52:00,46.8,30.0,30.12,ENE,69,1.0,2.0,52,0.00,,,0.00,0.0,meteohub,2013-11-12 03:52:00,
2013-11-11 22:57:00,46.9,29.8,30.12,North,5,0.0,4.0,51,0.00,,,0.00,0.0,meteohub,2013-11-12 03:57:00,
2013-11-11 23:02:00,47.3,29.7,30.12,ESE,109,0.0,4.0,50,0.00,,,0.00,0.0,meteohub,2013-11-12 04:02:00,
2013-11-11 23:08:00,47.3,29.7,30.11,SSE,168,0.0,4.0,50,0.00,,,0.00,0.0,meteohub,2013-11-12 04:08:00,
2013-11-11 23:15:00,47.3,30.0,30.11,SSE,163,0.0,5.0,51,0.00,,,0.00,0.0,meteohub,2013-11-12 04:15:00,
2013-11-11 23:20:00,47.1,30.4,30.11,North,355,0.0,13.0,52,0.00,,,0.00,0.0,meteohub,2013-11-12 04:20:00,
2013-11-11 23:26:00,46.6,30.4,30.10,North,10,1.0,13.0,53,0.00,,,0.00,0.0,meteohub,2013-11-12 04:26:00,
2013-11-11 23:32:00,46.6,30.4,30.10,North,9,1.0,13.0,53,0.00,,,0.00,0.0,meteohub,2013-11-12 04:32:00,
2013-11-11 23:37:00,46.6,31.3,30.10,WSW,240,0.0,5.0,55,0.00,,,0.00,0.0,meteohub,2013-11-12 04:37:00,
2013-11-11 23:42:00,46.0,30.7,30.09,NNW,331,2.0,5.0,55,0.00,,,0.00,0.0,meteohub,2013-11-12 04:42:00,
2013-11-11 23:47:00,46.0,30.4,30.09,North,5,1.0,3.0,54,0.00,,,0.00,0.0,meteohub,2013-11-12 04:47:00,
2013-11-11 23:52:00,46.0,30.4,30.09,East,80,0.0,3.0,54,0.00,,,0.00,0.0,meteohub,2013-11-12 04:52:00,
2013-11-11 23:57:00,46.4,30.2,30.09,North,355,1.0,6.0,53,0.00,,,0.00,0.0,meteohub,2013-11-12 04:57:00,